Mojave, CA (93501)

5:54 AM PST on December 27, 2014 (GMT -0800)
Mojave | Change Station
CLOSE
Current Station
Airport
Location: Mojave,
Elevation: 2785 ft
Nearby Weather Stations
Active Advisory: Hard Freeze Warning

Elev 2785 ft 35.06 °N, 118.15 °W | Updated 19 minutes ago

Clear
Clear
28 °F
Feels Like 25 °F
N
4
Wind Variable Wind from WNW

Today
High -- | Low -- °F
--% Chance of Precip.
Yesterday
High -- | Low -- °F
Precip. -- in
6:59 AM 4:48 PM
Waxing Crescent, 36% visible
Pressure 30.35 in
Visibility 10.0 miles
Clouds Clear
Windchill 25 °F
Dew Point 14 °F
Humidity 55%
Rainfall 0.00 in
Snow Depth Not available.
UV 0 out of 12
Pollen 5.60 out of 12
Air Quality Not available.
Flu Activity Not available.
METAR KMHV 271335Z AUTO 29003KT 10SM CLR M02/M10 A3035 RMK AO1

More Conditions Fewer Conditions

Pressure 30.35 in
Visibility 10.0 miles
Clouds Clear
Windchill 25 °F
Dew Point 14 °F
Humidity 55%
Rainfall 0.00 in
Snow Depth Not available.
UV 0 out of 12
Pollen 5.60 out of 12
Air Quality Not available.
Flu Activity Not available.
METAR KMHV 271335Z AUTO 29003KT 10SM CLR M02/M10 A3035 RMK AO1

More Conditions Fewer Conditions

10-Day Weather Forecast

Almanac

Astronomy

Dec. 27, 2014 Rise Set
Actual Time
Civil Twilight
Nautical Twilight
Astronomical Twilight
Moon
Length of Visible Light
Length of Day
Tomorrow will be .
, % of the Moon is Illuminated

Today's Extremes

State Highs State Lows

Community

WunderPhotos

Upload Photos

1,780,899 photos uploaded!

WunderBlogs® & News

Nearby

Air Quality

  Air Quality AQ Index Pollutant
Not available.

Snow Depth

Station Depth Elevation

Earthquake Activity

City Distance Mag. Time & Date
Minimum magnitude displayed is 2.5.

Coastal Water Temperatures

Place Temperature

Nearby Weather Stations